Weather History for KOWB - January, 2014

Change the Weather History Date:

Thursday, January 2, 2014

  Actual Average (WUND) Record (WUND)
Temperature  
Mean Temperature 26 °F -  
Max Temperature 37 °F - - (-1)
Min Temperature 15 °F - - (-1)
Degree Days  
Heating Degree Days 38    
Moisture  
Dew Point 23 °F    
Average Humidity 89    
Maximum Humidity 100    
Minimum Humidity 65    
Precipitation  
Precipitation 0.03 in - - ()
Sea Level Pressure  
Sea Level Pressure 30.08 in    
Wind  
Wind Speed 12 mph (NW)    
Max Wind Speed 29 mph    
Max Gust Speed 34 mph    
Visibility 6 miles    
Events Rain , Snow    
Averages and records for this station are not official NWS values.
T = Trace of Precipitation, MM = Missing Value Source: NWS Daily Summary

Daily Weather History Graph

Daily Weather History Graph

Search for Another Location

Airport or City:

Trip Planner

Search our weather history database for the weather conditions in past years. The results will help you decide how hot, cold, wet, or windy it might be!

Date:

Astronomy

Jan. 02, 2014 Rise Set
Actual Time 7:04 AM CST 4:41 PM CST
Civil Twilight 6:34 AM CST 5:10 PM CST
Nautical Twilight 6:02 AM CST 5:43 PM CST
Astronomical Twilight 5:30 AM CST 6:15 PM CST
Moon 7:47 AM CST (1/2) 6:35 PM CST (1/2)
Length of Visible Light 10h 35m
Length of Day
9h 37m
Waxing Crescent, 3% of the Moon is Illuminated
Jan 2
Waxing Crescent
Jan 7
First Quarter
Jan 15
Full
Jan 23
Last Quarter
Jan 30
New

Hourly Weather History & Observations

Time (CST) Temp. Windchill Dew Point Humidity Pressure Visibility Wind Dir Wind Speed Gust Speed Precip Events Conditions
12:56 AM 36.9 °F 32.2 °F 36.0 °F 97% 29.97 in 7.0 mi ESE 5.8 mph - 0.01 in Rain Light Rain
1:56 AM 36.9 °F 32.2 °F 36.0 °F 97% 29.95 in 8.0 mi SE 5.8 mph - 0.01 in Rain Light Rain
2:17 AM 37.4 °F 32.8 °F 35.6 °F 93% 29.94 in 7.0 mi SE 5.8 mph - 0.01 in Rain Light Rain
2:35 AM 37.4 °F 32.1 °F 35.6 °F 93% 29.93 in 10.0 mi SE 6.9 mph - 0.01 in   Overcast
2:56 AM 36.0 °F 31.1 °F 36.0 °F 100% 29.93 in 10.0 mi SE 5.8 mph - 0.01 in   Mostly Cloudy
3:26 AM 35.6 °F 29.9 °F 35.6 °F 100% 29.91 in 10.0 mi SSE 6.9 mph - 0.00 in   Overcast
3:56 AM 36.0 °F 33.3 °F 36.0 °F 100% 29.91 in 4.0 mi South 3.5 mph - 0.00 in   Overcast
4:03 AM 35.6 °F - 35.6 °F 100% 29.90 in 3.0 mi Calm Calm - 0.00 in   Overcast
4:15 AM 35.6 °F - 35.6 °F 100% 29.89 in 2.5 mi Calm Calm - 0.00 in   Overcast
4:33 AM 35.6 °F 32.8 °F 35.6 °F 100% 29.88 in 3.0 mi SW 3.5 mph - 0.00 in   Overcast
4:56 AM 36.0 °F - 36.0 °F 100% 29.89 in 3.0 mi Calm Calm - 0.00 in   Overcast
5:38 AM 35.6 °F 30.7 °F 35.6 °F 100% 29.87 in 4.0 mi WNW 5.8 mph - 0.00 in   Overcast
5:56 AM 34.9 °F 27.1 °F 34.9 °F 100% 29.90 in 3.0 mi WNW 10.4 mph - 0.00 in   Overcast
6:56 AM 30.0 °F 17.5 °F 30.0 °F 100% 29.94 in 2.0 mi NW 19.6 mph 26.5 mph 0.00 in Snow Light Snow
7:15 AM 28.4 °F 15.1 °F 28.4 °F 100% 29.95 in 1.2 mi NW 20.7 mph - 0.00 in Snow Light Snow
7:16 AM 28.4 °F 15.1 °F 28.4 °F 100% 29.95 in 1.2 mi NW 20.7 mph 26.5 mph 0.00 in Snow Light Snow
7:56 AM 25.2 °F 10.8 °F 25.2 °F 100% 29.99 in 2.0 mi NW 20.7 mph 28.8 mph 0.00 in Snow Light Snow
8:32 AM 23.0 °F 6.6 °F 23.0 °F 100% 30.00 in 3.0 mi NW 25.3 mph 29.9 mph 0.00 in Snow Light Snow
8:33 AM 23.0 °F 6.6 °F 23.0 °F 100% 30.00 in 5.0 mi NW 25.3 mph 29.9 mph 0.00 in Snow Light Snow
8:56 AM 22.1 °F 5.7 °F 21.0 °F 96% 30.03 in 8.0 mi NW 24.2 mph 32.2 mph 0.00 in Snow Light Snow
9:56 AM 22.1 °F 5.4 °F 18.1 °F 85% 30.07 in 7.0 mi NW 25.3 mph 33.4 mph 0.00 in Snow Light Snow
10:56 AM 21.0 °F 3.0 °F 16.2 °F 81% 30.09 in 10.0 mi NW 28.8 mph 34.5 mph 0.00 in   Overcast
11:56 AM 21.0 °F 4.6 °F 17.1 °F 85% 30.09 in 7.0 mi NW 23.0 mph - 0.00 in Snow Light Snow
12:56 PM 21.0 °F 4.6 °F 16.2 °F 81% 30.11 in 5.0 mi NW 23.0 mph 29.9 mph 0.00 in Snow Light Snow
1:56 PM 21.0 °F 5.7 °F 15.1 °F 78% 30.13 in 6.0 mi NW 19.6 mph 27.6 mph 0.00 in Snow Light Snow
2:56 PM 20.1 °F 3.4 °F 14.0 °F 77% 30.16 in 6.0 mi NNW 23.0 mph 28.8 mph 0.00 in Snow Light Snow
3:40 PM 21.2 °F 4.9 °F 12.2 °F 68% 30.17 in 10.0 mi NNW 23.0 mph 29.9 mph 0.00 in Snow Light Snow
3:56 PM 21.0 °F 5.0 °F 14.0 °F 74% 30.19 in 6.0 mi NW 21.9 mph 32.2 mph 0.00 in Snow Light Snow
4:04 PM 19.4 °F 3.2 °F 15.8 °F 86% 30.19 in 10.0 mi NW 20.7 mph 28.8 mph 0.00 in Snow Light Snow
4:56 PM 20.1 °F 4.2 °F 14.0 °F 77% 30.24 in 6.0 mi NW 20.7 mph 27.6 mph 0.00 in Snow Light Snow
5:56 PM 20.1 °F 5.0 °F 14.0 °F 77% 30.28 in 6.0 mi NW 18.4 mph 27.6 mph 0.00 in Snow Light Snow
6:56 PM 20.1 °F 5.9 °F 12.0 °F 71% 30.32 in 7.0 mi NW 16.1 mph 24.2 mph 0.00 in Snow Light Snow
7:56 PM 18.1 °F 2.0 °F 8.1 °F 65% 30.35 in 10.0 mi North 19.6 mph 27.6 mph 0.00 in   Mostly Cloudy
8:56 PM 17.1 °F 2.5 °F 7.2 °F 65% 30.38 in 10.0 mi North 15.0 mph 20.7 mph N/A   Clear
9:56 PM 16.2 °F 1.3 °F 10.0 °F 77% 30.40 in 10.0 mi NNW 15.0 mph 23.0 mph N/A   Partly Cloudy
10:56 PM 16.2 °F 3.9 °F 10.0 °F 77% 30.43 in 10.0 mi North 10.4 mph - N/A   Clear
11:56 PM 15.1 °F 3.3 °F 10.0 °F 80% 30.45 in 10.0 mi NNW 9.2 mph - N/A   Clear